Showing default

FLOCK 4Q 33, 58308

Orbit data source: Space-Track

FLOCK 4Q 33, 58308 is a payload satellite owned by Planet (US) in SSO that was launched on Sat, 11 Nov 2023 UTC via an FALCON 9 launch vehicle from the Air Force Western Test Range (AFWTR). Payload-class satellites include a variety of spacecraft equipped with specific instruments for various scientific and technological missions. These include communications satellites like Starlink; space stations such as the ISS; scientific satellites like the Hubble; Earth observation satellites from companies like Planet Labs, Umbra, and HawkEye 360; GPS; miniature CubeSats for education and research; and military/defense satellites.

Loading next visibility...
Identifier
58308, 2023-174BE
Orbit
SSO
Country
Flag of USUS
Related business
Manufacturer
Planet
Mission
Non-operational Commercial Imaging
Bus & Motor
CUBESAT 3U, Unknown motor
Mass
5.7 kg wet, 5.7 kg dry
Launch date (UTC)
2023-11-11 (3 years ago)
Launch vehicle
FALCON 9
Launch site
Air Force Western Test Range (AFWTR)
Object type
Payload
Rocket body
Debris
Shape & HBR
Box + 2 Pan, 1.0 m
Radar Cross Section
0.072 m², Medium (>0.1 m² and < 1m²)

Expand to show TLE details & history
Last TLE update: 1 day ago

TLE from 1 day ago
0 FLOCK 4Q 33
1 58308U 23174BE  26236.23283538  .00171987  00000-0  12695-2 0  9992
2 58308  97.3804 331.4541 0007545 222.5362 137.5318 15.72446859156473
Epoch: 2026-08-24T05:35Z
TLE epoch observation values (Epoch: 2026-08-24T05:35:16.976Z)
Latitude
-0.00002°
Longitude
-84.88412°
Altitude
358.816 km
Speed
7.692 km/s
True Right ascension
22h 05m 48s
True Declination
0° 00' 00"
Sunlit
Object was in full shadow at epoch
Visualization orbit readout
Latitude
Unknown
Longitude
Unknown
Altitude
Unknown
Speed
Unknown
Apparent Right ascension
Unknown
Apparent Declination
Unknown
Sunlit
N/A
Visualization observer readout
Local Sidereal Time
21:11:55
Azimuth
Unknown
Elevation
Unknown
Doppler factor
Unknown
Orbital elements
Apogee altitude
353.877 km
Perigee altitude
343.726 km
Semi-major axis
6,726.938 km
Eccentricity
0.00075
Inclination
97.3804°
RAAN
331.4541°
Arg. of periapsis
222.5362°
True anomaly
137.59014°
Mean anomaly
137.5318°
Eccentric anomaly
137.56097°
Mean motion
3.93384 °/min
Orbital period
91.51 mins
BSTAR
0.0012695
Loading maneuver chart data...
Computing Atmospheric mass density...

Documentation

Showing up to 5 results
|